Starlink 11400

operational
NORAD ID: 63017 Int'l Des: 2025-032 Owner: SPXS Country: US Constellation: starlink
LEOCIRCULAR

Starlink 11400について

説明を読み込み中...

リアルタイム位置

3D地球を読み込み中...

次回通過

高度履歴

Altitude vs Time

uPlot chart will show altitude changes over time

軌道要素

1 63017U 25032N 25260.12342369 .00278408 00000-0 20823-2 0 9990
2 63017 42.9981 161.7728 0001471 221.6230 138.4526 15.71056539 34911
Epoch: Sep 17, 2025 • Age: 12 hours

現在のステータス

高度 367.7 km
速度 7.69 km/s
衛星直下点 -43.14°S, 147.82°W
打ち上げ日 Feb 15, 2025
運用期間 0.5 years
タイプ internet

技術仕様

分類 Payload
質量 960.00 kg
乾燥質量 910.00 kg
総質量 960.00 kg
長さ 0.30 m
直径 4.10 m
スパン 29.00 m
形状 Box + pan
製造者 SPXS
バスタイプ Starlink V2MD
フェーズステータス In Orbit
所有者/国 SPXS/US

大規模コンステレーション

Loading constellations...